Find Starlink 32550

NORAD ID: 62131 Int'l Des: 2024-222 Owner: SPXS Country: US Constellation: starlink operational
LEOCIRCULAR

Live Position

Loading 3D Globe...

About Starlink 32550

Description loading...

Upcoming Passes

Passes for default location (London). Set your location on the main map for personalized predictions.

Altitude History

Loading altitude history...

Two-Line Element Set

1 62131U 24222T 26126.60581649 .00015491 00000-0 57105-3 0 9992
2 62131 43.0003 169.3442 0001470 272.5895 87.4788 15.27592091 81657
Epoch: May 6, 2026 • Age: 13 hours

Current Status

Altitude 482.8 km
Velocity 7.63 km/s
Sub-Earth Point 18.50°N, 43.96°E
Launch Date Nov 27, 2024
Age 1.4 years
Type internet

Technical Details

Classification Payload
Mass 730.00 kg
Dry Mass 700.00 kg
Total Mass 730.00 kg
Length 0.30 m
Diameter 4.10 m
Span 29.00 m
Shape Box + pan
Manufacturer SPXS
Bus Type Starlink V2M
Phase Status In Orbit
Owner/State SPXS/US

Most Searched